[[{"header":{"parameterUnit":"m.s-1","parameterCategory":1,"la1":30.2991,"la2":30.254,"lo1":-89.0895,"lo2":-89.0444,"dy":0.0017,"dx":0.0017,"nx":28,"ny":28,"refTime":"2023-08-26T03:00:00:Z","depth":0,"parameterNumber":2,"parameterNumberName":"U-component_of_WINDS"},"data":[0,0,0,0,0,0,0,0,0,0,0,0,0,0,0,0,0,0,0,0,0,0,0,0,0,0,0,0,0,0,0,0,0,0,0,0,0,0,0,0,0,0,0,0,0,0,0,0,0,0,0,0,0,0,0,0,0,0,1.3528,1.353,0,1.3672,1.3674,1.3676,1.3703,1.3702,1.3701,1.37,1.3851,1.3856,1.3861,0,0,0,0,0,0,0,0,0,0,0,0,0,1.3281,1.3285,1.3528,1.353,1.3532,1.3672,1.3674,1.3676,1.3703,1.3702,1.3701,1.3699,1.385,1.3856,1.3862,0,0,0,0,0,0,0,0,0,0,0,0,0,1.3403,1.3287,1.3528,1.3562,1.3567,1.3672,1.3674,1.3677,1.3704,1.3702,1.37,1.3699,1.3848,1.3855,1.3863,1.3945,0,0,1.3886,1.3889,0,0,0,0,0,0,0,0,1.3396,1.3412,1.3556,1.356,1.3565,1.3668,1.3642,1.3767,1.3704,1.3652,1.37,1.3698,1.3792,1.3804,1.3835,1.3952,1.3958,1.3887,1.3891,1.3895,1.3897,0,0,0,0,0,0,0,1.3388,1.3406,1.3585,1.3558,1.3564,1.3572,1.3587,1.3666,1.373,1.3656,1.3659,1.3675,1.3794,1.3828,1.3839,1.3961,1.3887,1.3893,1.3898,1.3901,1.4153,1.4155,0,0,0,0,0,0,1.3372,1.3399,1.3581,1.359,1.3475,1.3578,1.3595,1.3637,1.3729,1.3742,1.3676,1.3676,1.3815,1.383,1.3844,1.3947,1.3895,1.3902,1.3906,1.4151,1.4153,1.4155,0,0,0,0,0,0,1.3367,1.3388,1.3575,1.3495,1.3519,1.3584,1.3631,1.3641,1.3674,1.3744,1.3756,1.3698,1.3815,1.3833,1.3919,1.3952,1.3905,1.3912,1.4148,1.4151,1.4154,1.4152,0,0,0,0,0,0,1.336,1.3386,1.3417,1.3495,1.3523,1.3647,1.3633,1.3645,1.3687,1.3687,1.3768,1.378,1.3815,1.3908,1.3927,1.3962,1.3918,1.4146,1.415,1.4153,1.4149,1.4155,1.4159,0,0,0,0,0,1.3351,1.3411,1.3418,1.344,1.3563,1.3648,1.3665,1.3702,1.3689,1.3721,1.3767,1.3777,1.3946,1.3916,1.3938,1.3976,1.4144,1.4148,1.4153,1.4147,1.4153,1.4159,0,0,0,0,0,0,1.3337,1.3422,1.3431,1.3519,1.3576,1.3653,1.3694,1.3708,1.3771,1.3769,1.3814,1.3832,1.3916,1.3955,1.3921,1.4061,1.4044,1.4053,1.4032,1.4039,1.4043,1.4032,1.3925,0,0,0,0,0,1.3343,1.3404,1.3476,1.3547,1.3575,1.3629,1.3668,1.3692,1.3754,1.3778,1.383,1.3891,1.3957,1.4,1.4065,1.4155,1.4174,1.4192,1.4197,1.4201,1.4208,1.4259,1.4268,1.4171,1.4171,1.4171,0,0,1.3359,1.3413,1.3449,1.3545,1.3592,1.3655,1.365,1.3717,1.3764,1.3789,1.3873,1.3913,1.3984,1.4072,1.4113,1.4107,1.4239,1.4207,1.4209,1.4215,1.4265,1.4274,1.4282,1.4174,1.4173,1.4173,0,0,1.3418,1.3465,1.3529,1.3576,1.3647,1.3683,1.3698,1.3774,1.3801,1.3885,1.3905,1.3964,1.4077,1.4127,1.4167,1.4246,1.4258,1.4266,1.4291,1.434,1.4348,1.4355,1.4384,1.4393,1.4273,1.4273,1.4273,0,1.3428,1.3523,1.356,1.3626,1.3668,1.3693,1.3758,1.3803,1.3892,1.3921,1.3912,1.4055,1.4105,1.4205,1.4224,1.4256,1.4276,1.4257,1.4344,1.4351,1.4358,1.4386,1.4397,1.4274,1.4273,1.4273,1.4273,0,1.3532,1.3597,1.364,1.3724,1.3772,1.3837,1.3886,1.393,1.395,1.3987,1.4074,1.4133,1.4211,1.4237,1.4258,1.4341,1.4335,1.4334,1.4318,1.4367,1.4394,1.4405,1.4274,1.4274,1.4274,1.4274,0,0,1.3586,1.369,1.3705,1.3744,1.3824,1.3876,1.3943,1.4018,1.4055,1.4116,1.4174,1.427,1.427,1.4315,1.4342,1.4385,1.4445,1.438,1.4382,1.439,1.4541,1.454,1.4552,1.4453,1.4455,1.4457,1.4535,0,1.3656,1.3774,1.381,1.3911,1.3972,1.3996,1.4055,1.4111,1.4148,1.4207,1.4248,1.4315,1.431,1.4338,1.4382,1.4428,1.4475,1.4423,1.4509,1.4512,1.449,1.4566,1.4566,1.4636,1.4546,1.4547,1.4549,0,1.3752,1.3814,1.3919,1.3992,1.4019,1.4071,1.4143,1.4198,1.4263,1.4287,1.4338,1.4361,1.4433,1.4413,1.4514,1.4478,1.4516,1.4544,1.4547,1.4557,1.4533,1.4578,1.466,1.467,1.4566,1.4564,1.4563,0,1.3782,1.3891,1.3968,1.4001,1.4087,1.4123,1.4161,1.4224,1.4267,1.4331,1.4359,1.4431,1.447,1.4525,1.4568,1.4549,1.4666,1.4649,1.4689,1.4688,1.4712,1.471,1.4801,1.4736,1.4736,1.4735,1.4735,0,1.3855,1.3919,1.3983,1.403,1.4103,1.4145,1.4216,1.4256,1.4312,1.4368,1.4394,1.4448,1.45,1.4561,1.4595,1.4674,1.4691,1.4714,1.4722,1.4712,1.4709,1.4737,1.4733,1.4738,1.4738,1.4737,1.4737,0,1.39,1.3945,1.4031,1.4106,1.4126,1.4177,1.4242,1.429,1.4327,1.4399,1.4419,1.4479,1.4552,1.4599,1.4693,1.4715,1.4802,1.4809,1.4779,1.4783,1.4821,1.4817,1.4933,1.4951,1.4873,1.4874,1.4874,0,1.3944,1.3994,1.4074,1.4113,1.4151,1.4214,1.4257,1.4301,1.4345,1.4423,1.4462,1.4536,1.4598,1.4713,1.4766,1.4838,1.4847,1.4883,1.4858,1.4846,1.4849,1.4845,1.4851,1.4887,1.4888,1.4888,1.4889,0,1.4018,1.4037,1.4098,1.4168,1.4218,1.4275,1.4333,1.4364,1.4417,1.4466,1.454,1.4588,1.4682,1.4756,1.4833,1.4874,1.4891,1.4896,1.4909,1.4899,1.488,1.4892,1.4791,1.4893,1.4893,1.4893,1.4892,1.4892,1.4064,1.4109,1.4172,1.424,1.4287,1.434,1.4389,1.4432,1.4494,1.4574,1.4596,1.4673,1.4738,1.4843,1.4885,1.4948,1.4944,1.4962,1.4967,1.4972,1.4972,1.487,1.4962,1.4962,1.4962,1.4962,1.4961,0,1.4139,1.4181,1.4242,1.4321,1.4374,1.4384,1.4448,1.4492,1.4559,1.4618,1.4678,1.4763,1.4835,1.4894,1.4968,1.5007,1.5017,1.5025,1.5023,1.5032,1.4971,1.4952,1.5016,1.5016,1.5016,1.5016,1.5016,1.5016,1.4185,1.4262,1.4289,1.4391,1.4433,1.4507,1.4543,1.4593,1.4639,1.4733,1.4792,1.4829,1.4889,1.4968,1.5034,1.505,1.5077,1.5083,1.5101,1.5043,1.5036,1.5031,1.5013,1.5089,1.5089,1.5157,1.5158,1.5158]},{"header":{"parameterUnit":"m.s-1","parameterCategory":1,"la1":30.2991,"la2":30.254,"lo1":-89.0895,"lo2":-89.0444,"dy":0.0017,"dx":0.0017,"nx":28,"ny":28,"refTime":"2023-08-26T03:00:00:Z","depth":0,"parameterNumber":3,"parameterNumberName":"V-component_of_WINDS"},"data":[0,0,0,0,0,0,0,0,0,0,0,0,0,0,0,0,0,0,0,0,0,0,0,0,0,0,0,0,0,0,0,0,0,0,0,0,0,0,0,0,0,0,0,0,0,0,0,0,0,0,0,0,0,0,0,0,0,0,2.3848,2.3848,0,2.3789,2.3789,2.3788,2.3716,2.3715,2.3714,2.3713,2.365,2.3649,2.3648,0,0,0,0,0,0,0,0,0,0,0,0,0,2.3897,2.3896,2.3848,2.3848,2.3847,2.379,2.3789,2.3788,2.3716,2.3715,2.3713,2.3712,2.365,2.3649,2.3648,0,0,0,0,0,0,0,0,0,0,0,0,0,2.3861,2.3896,2.3848,2.3804,2.38,2.379,2.3789,2.3788,2.3716,2.3715,2.3713,2.3712,2.365,2.3649,2.3648,2.3676,0,0,2.3645,2.3645,0,0,0,0,0,0,0,0,2.3863,2.3859,2.3811,2.3807,2.3802,2.3758,2.3783,2.375,2.3717,2.3748,2.3713,2.3711,2.3687,2.3683,2.3675,2.3673,2.367,2.3645,2.3645,2.3644,2.3644,0,0,0,0,0,0,0,2.3865,2.3861,2.3825,2.3811,2.3805,2.3787,2.378,2.3776,2.3728,2.3745,2.374,2.3734,2.3684,2.3677,2.3673,2.367,2.3645,2.3644,2.3644,2.3644,2.3688,2.369,0,0,0,0,0,0,2.3875,2.3864,2.3827,2.3823,2.3829,2.3787,2.3779,2.3774,2.3727,2.3719,2.3735,2.3731,2.3679,2.3675,2.3671,2.3701,2.3644,2.3643,2.3643,2.3686,2.3688,2.369,0,0,0,0,0,0,2.3876,2.3872,2.3829,2.3842,2.3835,2.3788,2.3783,2.3774,2.3766,2.372,2.3711,2.3737,2.3678,2.3672,2.3676,2.3698,2.3643,2.3642,2.3684,2.3687,2.3689,2.3762,0,0,0,0,0,0,2.3878,2.3873,2.3884,2.3843,2.3835,2.3836,2.3784,2.3774,2.3765,2.3758,2.3719,2.3711,2.3676,2.3678,2.3675,2.3696,2.3641,2.3682,2.3685,2.3688,2.3757,2.3766,2.3774,0,0,0,0,0,2.388,2.3906,2.3885,2.388,2.3847,2.3837,2.3832,2.3792,2.3767,2.3777,2.3748,2.3712,2.3696,2.3679,2.3675,2.3696,2.368,2.3684,2.3688,2.3753,2.3765,2.3774,0,0,0,0,0,0,2.3949,2.3899,2.3875,2.3889,2.3868,2.3825,2.3836,2.3806,2.3791,2.3785,2.3735,2.3727,2.3737,2.3716,2.3698,2.3721,2.3683,2.3686,2.3734,2.3744,2.3753,2.3757,2.3641,0,0,0,0,0,2.3966,2.3963,2.3919,2.3935,2.3926,2.3883,2.3878,2.3849,2.3825,2.3815,2.3786,2.3763,2.3753,2.3747,2.3735,2.3754,2.3744,2.3766,2.3775,2.3782,2.3786,2.3795,2.3804,2.3703,2.3703,2.3703,0,0,2.4001,2.3973,2.3974,2.3949,2.3929,2.3927,2.3876,2.3875,2.3873,2.3815,2.3817,2.3795,2.3766,2.3777,2.3781,2.3761,2.3812,2.3787,2.3794,2.3793,2.38,2.3809,2.3818,2.3706,2.3705,2.3705,0,0,2.4063,2.4042,2.4053,2.4035,2.4006,2.3978,2.3981,2.3943,2.3926,2.3928,2.3884,2.388,2.3864,2.3845,2.3834,2.3891,2.3858,2.3888,2.3933,2.3943,2.3951,2.3958,2.3979,2.3987,2.3892,2.3892,2.3892,0,2.4109,2.4104,2.4062,2.4065,2.4055,2.4004,2.4015,2.3999,2.3968,2.3962,2.394,2.3919,2.3896,2.3903,2.3917,2.3909,2.3911,2.3892,2.3953,2.396,2.3965,2.3985,2.3993,2.3896,2.3896,2.3895,2.3895,0,2.4163,2.4161,2.4173,2.4146,2.4137,2.4144,2.4103,2.4099,2.4072,2.4046,2.4048,2.4019,2.4001,2.4,2.3972,2.4003,2.3992,2.3963,2.3924,2.398,2.3997,2.4004,2.3902,2.39,2.3899,2.3898,0,0,2.4266,2.4217,2.4222,2.4209,2.4175,2.4172,2.4176,2.416,2.4158,2.4138,2.4141,2.4129,2.4102,2.4089,2.4059,2.4067,2.4115,2.4036,2.4035,2.4053,2.4148,2.4171,2.418,2.4093,2.4094,2.4095,2.4151,0,2.4322,2.4328,2.4291,2.4306,2.4304,2.4255,2.4259,2.4239,2.4215,2.4208,2.4181,2.4174,2.4138,2.4131,2.4137,2.4108,2.4134,2.4103,2.4095,2.4095,2.4104,2.4189,2.4213,2.4267,2.4157,2.4158,2.4159,0,2.4388,2.4373,2.4389,2.4355,2.4352,2.4357,2.4339,2.4334,2.4309,2.4291,2.4278,2.4244,2.4246,2.4209,2.4211,2.4192,2.4186,2.4172,2.4173,2.417,2.4131,2.4189,2.4283,2.4291,2.4169,2.4168,2.4168,0,2.4462,2.4447,2.4454,2.4445,2.4405,2.4409,2.4393,2.4366,2.4359,2.4344,2.4338,2.4323,2.4314,2.4303,2.4266,2.4243,2.4272,2.4232,2.4257,2.4259,2.4266,2.4266,2.436,2.4262,2.4262,2.4262,2.4261,0,2.4528,2.454,2.4487,2.4492,2.4504,2.4461,2.4474,2.4452,2.443,2.4429,2.4386,2.4386,2.4337,2.4332,2.4303,2.4309,2.4305,2.4291,2.4283,2.4295,2.4297,2.4291,2.4286,2.4264,2.4263,2.4263,2.4262,0,2.4613,2.4578,2.4584,2.4546,2.4537,2.4547,2.4515,2.4517,2.4491,2.4491,2.4489,2.4448,2.4439,2.4401,2.4384,2.4364,2.4381,2.4365,2.439,2.4385,2.4412,2.441,2.4505,2.4516,2.4411,2.4412,2.4413,0,2.4658,2.4666,2.463,2.4627,2.4613,2.4608,2.4601,2.456,2.4554,2.4528,2.4534,2.4522,2.4511,2.45,2.4468,2.4455,2.4439,2.4473,2.4436,2.4449,2.444,2.444,2.4441,2.4481,2.4483,2.4484,2.4484,0,2.4741,2.4724,2.4716,2.4702,2.4695,2.4682,2.4666,2.4666,2.462,2.4616,2.4608,2.4599,2.4582,2.4572,2.4553,2.4535,2.4503,2.4497,2.4502,2.4514,2.4529,2.4522,2.4412,2.4494,2.4493,2.4493,2.4492,2.4492,2.4807,2.4813,2.4789,2.4781,2.4765,2.4752,2.4753,2.4728,2.4721,2.4705,2.468,2.4676,2.4652,2.4624,2.4609,2.4605,2.4586,2.4593,2.4595,2.4598,2.4604,2.4529,2.4601,2.46,2.46,2.46,2.46,0,2.4889,2.4871,2.4865,2.4845,2.484,2.481,2.4792,2.4789,2.4786,2.4766,2.4757,2.4748,2.4738,2.4706,2.4693,2.4696,2.468,2.4694,2.4693,2.469,2.4621,2.4618,2.4706,2.4706,2.4706,2.4706,2.4706,2.4706,2.4931,2.4938,2.4919,2.4919,2.49,2.4897,2.4889,2.4876,2.4861,2.4854,2.4846,2.4825,2.4801,2.4786,2.4776,2.4766,2.4764,2.4782,2.4768,2.4705,2.4694,2.4685,2.4682,2.4782,2.4782,2.4837,2.4838,2.4838]}]]